Tracking 27422 objects as of 29-May-2023
HD Live streaming from Space Station
objects crossing your sky now

ST5-A

Track ST5-A now!
10-day predictions
ST5-A is classified as:


NORAD ID: 28980
Int'l Code: 2006-008A
Perigee: 307.3 km
Apogee: 3,438.7 km
Inclination: 105.5 °
Period: 124.2 minutes
Semi major axis: 8243 km
RCS: 0.3025 m2 (medium)
Launch date: March 22, 2006
Source: United States (US)
Launch site: Pegasus launched from Western Range Air Space (WRAS)
Your satellite tracking list
Your tracking list is empty




NASA's NSSDC Master Catalog

Two Line Element Set (TLE):
1 28980U 06008A   23149.52930032  .00029182  25012-5  12556-2 0  9992
2 28980 105.5153 267.3273 1899186 140.4439 235.1915 11.59839977690051
Source of the keplerian elements: AFSPC